Location: Asheville, NC
(35.6000°N, 82.5500°W)
Time: 03:49:34
(UTC-05:00)

Vanguard 2 - Pass Details

Date: 15 December 2017
Orbit: 553 x 2940 km, 32.9° (Epoch: 20 January)

Event Time Altitude Azimuth Distance (km) Brightness Sun altitude
Rises 18:47:59 0° 274° (W) 3,507 12.3 -17.6°
Reaches altitude 10° 18:51:00 10° 268° (W) 2,292 11.1 -18.2°
Maximum altitude 18:55:48 46° 195° (SSW) 815 7.8 -19.2°
Enters shadow 18:57:44 26° 136° (SE) 1,143 8.1 -19.5°
